• In Portugal
  • List of Countries
  • For 7 days
  • Water Temperature
  • Satellite Maps
  • Weather Map
  • Weather Widgets
  • user-avatar
    Login

    Hourly Weather Ropotamo

    Today, 15 October, Monday

    Time Temperature Precipitation Wind Pressure Humidity
    00:00 +14°C° 0 mm 5 mps 764 mmHg 89%
    01:00 +13°C° 0 mm 5 mps 763 mmHg 89%
    02:00 +13°C° 0 mm 5 mps 763 mmHg 88%
    03:00 +13°C° 0 mm 5 mps 763 mmHg 89%
    04:00 +13°C° 0 mm 5 mps 763 mmHg 89%
    05:00 +13°C° 0 mm 5 mps 763 mmHg 89%
    06:00 +14°C° 0 mm 5 mps 763 mmHg 86%
    07:00 +15°C° 0 mm 6 mps 763 mmHg 82%
    08:00 +16°C° 0 mm 6 mps 763 mmHg 78%
    09:00 +17°C° 0 mm 6 mps 763 mmHg 71%
    10:00 +20°C° 0 mm 6 mps 763 mmHg 64%
    11:00 +21°C° 0 mm 6 mps 763 mmHg 58%
    12:00 +22°C° 0 mm 6 mps 763 mmHg 56%
    13:00 +22°C° 0 mm 6 mps 763 mmHg 53%
    14:00 +22°C° 0 mm 6 mps 763 mmHg 52%
    15:00 +21°C° 0.1 mm 6 mps 763 mmHg 57%
    16:00 +20°C° 0.1 mm 6 mps 763 mmHg 61%
    17:00 +19°C° 0.1 mm 6 mps 763 mmHg 66%
    18:00 +17°C° 0 mm 5 mps 763 mmHg 72%
    19:00 +16°C° 0 mm 5 mps 763 mmHg 77%
    20:00 +15°C° 0 mm 5 mps 763 mmHg 83%
    21:00 +15°C° 0 mm 5 mps 763 mmHg 85%
    22:00 +14°C° 0 mm 4 mps 763 mmHg 88%
    23:00 +14°C° 0 mm 4 mps 763 mmHg 90%

    Tomorrow, 16 October, Tuesday

    Time Temperature Precipitation Wind Pressure Humidity
    00:00 +14°C° 0 mm 4 mps 763 mmHg 90%
    01:00 +13°C° 0 mm 4 mps 763 mmHg 91%
    02:00 +13°C° 0 mm 4 mps 763 mmHg 91%
    03:00 +13°C° 0 mm 4 mps 762 mmHg 92%
    04:00 +13°C° 0 mm 4 mps 762 mmHg 92%
    05:00 +12°C° 0 mm 4 mps 762 mmHg 92%
    06:00 +13°C° 0 mm 4 mps 762 mmHg 89%
    07:00 +14°C° 0 mm 4 mps 763 mmHg 85%
    08:00 +14°C° 0 mm 4 mps 763 mmHg 82%
    09:00 +17°C° 0 mm 4 mps 763 mmHg 75%
    10:00 +19°C° 0 mm 4 mps 763 mmHg 69%
    11:00 +21°C° 0 mm 4 mps 763 mmHg 62%
    12:00 +22°C° 0 mm 4 mps 763 mmHg 61%
    13:00 +23°C° 0 mm 5 mps 763 mmHg 61%
    14:00 +23°C° 0 mm 5 mps 762 mmHg 60%
    15:00 +22°C° 0 mm 5 mps 762 mmHg 65%
    16:00 +21°C° 0 mm 4 mps 762 mmHg 69%
    17:00 +20°C° 0 mm 4 mps 762 mmHg 74%
    18:00 +19°C° 0 mm 4 mps 762 mmHg 78%
    19:00 +18°C° 0 mm 3 mps 762 mmHg 82%
    20:00 +17°C° 0 mm 3 mps 762 mmHg 86%
    21:00 +17°C° 0 mm 3 mps 762 mmHg 85%
    22:00 +16°C° 0 mm 3 mps 762 mmHg 85%
    23:00 +16°C° 0 mm 3 mps 762 mmHg 84%

    Day after tomorrow, 17 October, Wednesday

    Time Temperature Precipitation Wind Pressure Humidity
    00:00 +16°C° 0 mm 3 mps 762 mmHg 84%
    01:00 +14°C° 0 mm 3 mps 762 mmHg 83%
    02:00 +14°C° 0 mm 3 mps 762 mmHg 83%
    03:00 +14°C° 0 mm 3 mps 761 mmHg 82%
    04:00 +14°C° 0 mm 4 mps 761 mmHg 81%
    05:00 +14°C° 0 mm 4 mps 761 mmHg 81%
    06:00 +14°C° 0 mm 4 mps 761 mmHg 77%
    07:00 +15°C° 0 mm 4 mps 761 mmHg 73%
    08:00 +17°C° 0 mm 4 mps 761 mmHg 69%
    09:00 +17°C° 0 mm 5 mps 761 mmHg 66%
    10:00 +20°C° 0 mm 5 mps 761 mmHg 63%
    11:00 +22°C° 0 mm 5 mps 761 mmHg 60%
    12:00 +22°C° 0 mm 5 mps 761 mmHg 61%
    13:00 +22°C° 0 mm 5 mps 760 mmHg 62%
    14:00 +23°C° 0 mm 5 mps 760 mmHg 63%
    15:00 +22°C° 0 mm 5 mps 760 mmHg 65%
    16:00 +21°C° 0 mm 4 mps 760 mmHg 67%
    17:00 +20°C° 0 mm 4 mps 760 mmHg 69%
    18:00 +19°C° 0 mm 4 mps 760 mmHg 75%
    19:00 +18°C° 0 mm 4 mps 760 mmHg 81%
    20:00 +17°C° 0 mm 4 mps 760 mmHg 87%
    21:00 +17°C° 0 mm 4 mps 760 mmHg 90%
    22:00 +17°C° 0 mm 4 mps 760 mmHg 92%
    23:00 +17°C° 0 mm 3 mps 760 mmHg 95%

    18 October, Thursday

    Time Temperature Precipitation Wind Pressure Humidity
    00:00 +17°C° 0 mm 4 mps 760 mmHg 95%
    01:00 +15°C° 0 mm 4 mps 759 mmHg 95%
    02:00 +15°C° 0 mm 4 mps 759 mmHg 95%
    03:00 +15°C° 0.1 mm 4 mps 759 mmHg 95%
    04:00 +15°C° 0.1 mm 4 mps 759 mmHg 95%
    05:00 +15°C° 0.1 mm 4 mps 759 mmHg 95%
    06:00 +15°C° 0.1 mm 4 mps 759 mmHg 93%
    07:00 +15°C° 0.1 mm 4 mps 759 mmHg 91%
    08:00 +17°C° 0.1 mm 4 mps 759 mmHg 89%
    09:00 +18°C° 0.1 mm 4 mps 759 mmHg 84%
    10:00 +19°C° 0.1 mm 4 mps 759 mmHg 80%
    11:00 +20°C° 0.1 mm 4 mps 759 mmHg 75%
    12:00 +21°C° 0 mm 4 mps 759 mmHg 71%
    13:00 +22°C° 0 mm 4 mps 759 mmHg 68%
    14:00 +22°C° 0 mm 4 mps 758 mmHg 64%
    15:00 +22°C° 0 mm 4 mps 758 mmHg 68%
    16:00 +21°C° 0 mm 4 mps 758 mmHg 72%
    17:00 +20°C° 0 mm 3 mps 758 mmHg 77%
    18:00 +19°C° 0 mm 3 mps 758 mmHg 82%
    19:00 +18°C° 0 mm 3 mps 759 mmHg 88%
    20:00 +17°C° 0 mm 3 mps 759 mmHg 93%
    21:00 +17°C° 0 mm 2 mps 759 mmHg 94%
    22:00 +16°C° 0 mm 2 mps 759 mmHg 95%
    23:00 +16°C° 0 mm 2 mps 759 mmHg 95%

    19 October, Friday

    Time Temperature Precipitation Wind Pressure Humidity
    00:00 +16°C° 0 mm 2 mps 759 mmHg 95%
    01:00 +16°C° 0 mm 2 mps 759 mmHg 95%
    02:00 +16°C° 0 mm 2 mps 759 mmHg 95%
    03:00 +16°C° 0 mm 2 mps 759 mmHg 95%
    04:00 +16°C° 0 mm 2 mps 759 mmHg 95%
    05:00 +16°C° 0 mm 2 mps 759 mmHg 95%
    06:00 +16°C° 0 mm 2 mps 759 mmHg 92%
    07:00 +17°C° 0 mm 2 mps 760 mmHg 89%
    08:00 +17°C° 0 mm 2 mps 760 mmHg 86%
    09:00 +19°C° 0 mm 2 mps 760 mmHg 77%
    10:00 +22°C° 0 mm 1 mps 760 mmHg 68%
    11:00 +24°C° 0 mm 1 mps 760 mmHg 59%
    12:00 +24°C° 0 mm 1 mps 760 mmHg 56%
    13:00 +25°C° 0 mm 2 mps 759 mmHg 53%
    14:00 +25°C° 0 mm 2 mps 759 mmHg 50%
    15:00 +24°C° 0 mm 2 mps 759 mmHg 54%
    16:00 +23°C° 0 mm 2 mps 759 mmHg 59%
    17:00 +21°C° 0 mm 2 mps 759 mmHg 63%
    18:00 +20°C° 0 mm 2 mps 759 mmHg 69%
    19:00 +20°C° 0 mm 1 mps 759 mmHg 75%
    20:00 +19°C° 0 mm 1 mps 760 mmHg 81%
    21:00 +19°C° 0 mm 1 mps 760 mmHg 81%
    22:00 +18°C° 0 mm 1 mps 760 mmHg 81%
    23:00 +16°C° 0 mm 0 mps 760 mmHg 82%

    20 October, Saturday

    Time Temperature Precipitation Wind Pressure Humidity
    00:00 +18°C° 0 mm 1 mps 760 mmHg 81%
    01:00 +18°C° 0 mm 1 mps 760 mmHg 81%
    02:00 +16°C° 0 mm 1 mps 760 mmHg 80%
    03:00 +16°C° 0 mm 1 mps 760 mmHg 80%
    04:00 +16°C° 0 mm 1 mps 760 mmHg 80%
    05:00 +16°C° 0 mm 1 mps 760 mmHg 79%
    06:00 +18°C° 0 mm 1 mps 760 mmHg 75%
    07:00 +18°C° 0 mm 1 mps 760 mmHg 71%
    08:00 +19°C° 0 mm 1 mps 760 mmHg 68%
    09:00 +21°C° 0 mm 1 mps 760 mmHg 61%
    10:00 +23°C° 0 mm 2 mps 760 mmHg 55%
    11:00 +25°C° 0 mm 2 mps 760 mmHg 49%
    12:00 +25°C° 0 mm 2 mps 760 mmHg 47%
    13:00 +26°C° 0 mm 2 mps 760 mmHg 45%
    14:00 +26°C° 0 mm 2 mps 759 mmHg 43%
    15:00 +25°C° 0 mm 2 mps 759 mmHg 47%
    16:00 +24°C° 0 mm 2 mps 759 mmHg 51%
    17:00 +23°C° 0 mm 2 mps 759 mmHg 56%
    18:00 +22°C° 0 mm 1 mps 760 mmHg 60%
    19:00 +20°C° 0 mm 1 mps 760 mmHg 65%
    20:00 +19°C° 0 mm 1 mps 760 mmHg 70%
    21:00 +19°C° 0 mm 1 mps 760 mmHg 70%
    22:00 +18°C° 0 mm 1 mps 760 mmHg 71%
    23:00 +18°C° 0 mm 1 mps 760 mmHg 71%
    Show more